Weather History for Waterloo, IA

Change the Weather History Date:

Sunday, July 14, 2013

  Actual Average Record
Temperature  
Mean Temperature 73 °F 74 °F  
Max Temperature 87 °F 85 °F 112 °F (1936)
Min Temperature 58 °F 63 °F 44 °F (1926)
Degree Days  
Heating Degree Days 0 0  
Month to date heating degree days 0 0  
Since 1 June heating degree days 38 26  
Since 1 July heating degree days 0 0  
Cooling Degree Days 8 9  
Month to date cooling degree days 125 126  
Year to date cooling degree days 346 359  
Since 1 June cooling degree days 293 303  
Growing Degree Days 22 (Base 50)    
Moisture  
Dew Point 62 °F    
Average Humidity 71    
Maximum Humidity 97    
Minimum Humidity 44    
Precipitation  
Precipitation 0.00 in 0.16 in 2.14 in (1962)
Month to date precipitation 0.28 2.35  
Year to date precipitation 28.54 19.45  
Snow  
Snow 0.00 in 0.00 in - ()
Month to date snowfall 0.0 0.0  
Since 1 June snowfall 0.0 0.0  
Since 1 July snowfall 0.0 0.0  
Snow Depth 0.00 in    
Sea Level Pressure  
Sea Level Pressure 30.13 in    
Wind  
Wind Speed 7 mph (ESE)    
Max Wind Speed 16 mph    
Max Gust Speed 25 mph    
Visibility 10 miles    
Events      
T = Trace of Precipitation, MM = Missing Value Source: NWS Daily Summary

Daily Weather History Graph

Daily Weather History Graph

Search for Another Location

Airport:

Trip Planner

Search our weather history database for the weather conditions in past years. The results will help you decide how hot, cold, wet, or windy it might be!

Date:

Astronomy

Jul. 14, 2013 Rise Set
Actual Time 5:44 AM CDT 8:45 PM CDT
Civil Twilight 5:11 AM CDT 9:19 PM CDT
Nautical Twilight 4:27 AM CDT 10:02 PM CDT
Astronomical Twilight 3:37 AM CDT 10:52 PM CDT
Moon 12:11 PM CDT (7/14) 11:48 PM CDT (7/14)
Length of Visible Light 16h 08m
Length of Day
15h 00m
Waxing Crescent, 35% of the Moon is Illuminated
Jul 14
Waxing Crescent
Jul 15
First Quarter
Jul 22
Full
Jul 29
Last Quarter
Aug 6
New

Hourly Weather History & Observations

Time (CDT) Temp. Heat Index Dew Point Humidity Pressure Visibility Wind Dir Wind Speed Gust Speed Precip Events Conditions
12:54 AM 66.9 °F - 62.1 °F 84% 30.11 in 10.0 mi SE 5.8 mph - N/A   Clear
1:54 AM 64.9 °F - 61.0 °F 87% 30.11 in 10.0 mi ESE 4.6 mph - N/A   Clear
2:54 AM 64.0 °F - 60.1 °F 87% 30.11 in 10.0 mi ESE 4.6 mph - N/A   Clear
3:54 AM 61.0 °F - 59.0 °F 93% 30.11 in 10.0 mi ESE 3.5 mph - N/A   Clear
4:54 AM 59.0 °F - 57.9 °F 96% 30.10 in 9.0 mi ESE 3.5 mph - N/A   Clear
5:54 AM 60.1 °F - 57.9 °F 93% 30.12 in 8.0 mi Calm Calm - N/A   Clear
6:54 AM 63.0 °F - 60.1 °F 90% 30.13 in 7.0 mi Calm Calm - N/A   Clear
7:54 AM 68.0 °F - 63.0 °F 84% 30.13 in 10.0 mi ESE 5.8 mph - N/A   Clear
8:54 AM 73.0 °F - 64.0 °F 73% 30.15 in 10.0 mi SSE 5.8 mph - N/A   Clear
9:54 AM 77.0 °F - 66.0 °F 69% 30.15 in 10.0 mi South 8.1 mph - N/A   Clear
10:54 AM 79.0 °F - 66.0 °F 64% 30.16 in 10.0 mi SE 6.9 mph - N/A   Clear
11:54 AM 82.0 °F 83.4 °F 64.0 °F 54% 30.16 in 10.0 mi SE 10.4 mph - N/A   Clear
12:54 PM 82.9 °F 84.0 °F 63.0 °F 51% 30.15 in 10.0 mi SSE 10.4 mph - N/A   Partly Cloudy
1:54 PM 84.9 °F 85.9 °F 63.0 °F 48% 30.13 in 10.0 mi SSE 11.5 mph - N/A   Clear
2:54 PM 84.9 °F 85.0 °F 61.0 °F 44% 30.13 in 10.0 mi SSE 12.7 mph 25.3 mph N/A   Mostly Cloudy
3:54 PM 86.0 °F 86.3 °F 62.1 °F 44% 30.13 in 10.0 mi ESE 12.7 mph - N/A   Mostly Cloudy
4:54 PM 84.9 °F 85.0 °F 61.0 °F 44% 30.12 in 10.0 mi ESE 15.0 mph - N/A   Scattered Clouds
5:54 PM 82.9 °F 83.3 °F 61.0 °F 47% 30.12 in 10.0 mi SE 11.5 mph 19.6 mph N/A   Mostly Cloudy
6:54 PM 82.9 °F 83.3 °F 61.0 °F 47% 30.12 in 10.0 mi SE 10.4 mph - N/A   Partly Cloudy
7:54 PM 81.0 °F 82.2 °F 63.0 °F 54% 30.13 in 10.0 mi ESE 6.9 mph - N/A   Scattered Clouds
8:54 PM 75.9 °F - 63.0 °F 64% 30.14 in 10.0 mi East 4.6 mph - N/A   Clear
9:54 PM 71.1 °F - 63.0 °F 75% 30.16 in 10.0 mi East 3.5 mph - N/A   Clear
10:54 PM 66.9 °F - 63.0 °F 87% 30.17 in 10.0 mi ENE 3.5 mph - N/A   Clear
11:54 PM 69.1 °F - 63.0 °F 81% 30.19 in 10.0 mi ENE 3.5 mph - N/A   Clear